Regional Weather Roundup
Issued by NWS

Home | Current Version | Previous Version | Text Only | Print | Product List | Glossary Off
Versions: 1 2 3 4 5 6 7 8 9 10 11 12 13 14 15 16 17 18 19 20 21 22 23 24 25 26 27 28 29 30 31 32 33 34 35 36 37 38 39 40 41 42 43 44 45 46 47 48 49 50

000
ASUS43 KOAX 011102
RWRNE

WEATHER ROUNDUP FOR NEBRASKA
NATIONAL WEATHER SERVICE OMAHA NE
600 AM CDT TUE SEP 01 2015

NOTES: SATELLITE DATA IS BEING USED TO AUGMENT CLOUD COVER ABOVE
       12000 FEET.
       "FAIR" INDICATES FEW OR NO CLOUDS BELOW 12,000 FEET WITH NO
       SIGNIFICANT WEATHER AND/OR OBSTRUCTIONS TO VISIBILITY.

  * THESE STATIONS DO NOT REPORT WEATHER SUCH AS RAIN...SNOW OR FOG.

NEZ001>004-019>022-054>056-011200-
NEBRASKA PANHANDLE

CITY           SKY/WX    TMP DP  RH WIND       PRES   REMARKS
SCOTTSBLUFF    CLEAR     56  53  90 CALM      29.99F
ALLIANCE       MOCLDY    58  52  80 NW5       29.96F
CHADRON        PTCLDY    62  50  64 CALM      29.92R
KIMBALL        CLEAR     56  51  81 W12       30.04S
SIDNEY         CLEAR     57  51  80 NW7       30.02S
$$

NEZ057>060-069>072-079>082-011200-
SOUTHWEST NEBRASKA

CITY           SKY/WX    TMP DP  RH WIND       PRES   REMARKS
NORTH PLATTE   LGT RAIN  68  62  81 SE9       29.92S
IMPERIAL       PTCLDY    64  59  83 W5        29.97R
LEXINGTON      CLOUDY    67  60  77 E3        29.90F
MC COOK        CLOUDY    68  64  87 SW9       29.92R
OGALLALA       MOCLDY    63  60  90 CALM      29.96R
$$

NEZ005>010-023>029-035>040-094-011200-
NORTH CENTRAL NEBRASKA

CITY           SKY/WX    TMP DP  RH WIND       PRES   REMARKS
VALENTINE      CLOUDY    60  58  92 W3        29.90F
AINSWORTH      CLOUDY    66  64  95 SE5       29.90S
BROKEN BOW     CLOUDY    68  64  87 CALM      29.91S
O`NEILL        CLOUDY    69  68  97 SE3       29.88F
ORD            CLOUDY    65  63  93 SE5       29.89S
THEDFORD       LGT RAIN  68  65  90 S3        29.94R
$$

NEZ041-046>049-061>064-073>077-083>087-011200-
SOUTH CENTRAL NEBRASKA

CITY           SKY/WX    TMP DP  RH WIND       PRES   REMARKS
GRAND ISLAND   MOCLDY    71  58  63 S12       29.91S
AURORA         MOCLDY    67  64  90 S6        29.92S
HASTINGS       MOCLDY    67  58  72 S7        29.92S
HEBRON         PTCLDY    70  61  72 S8        29.93S
HOLDREGE       CLOUDY    70  55  57 S10       29.91F
KEARNEY *      CLOUDY    72  54  53 S13       29.91S
YORK           MOCLDY    66  64  94 S8        29.93S
$$

NEZ011>018-030>034-042>045-011200-
NORTHEAST NEBRASKA

CITY           SKY/WX    TMP DP  RH WIND       PRES   REMARKS
NORFOLK        MOCLDY    69  65  86 CALM      29.90R
ALBION         PTCLDY    66  63  90 SE5       29.90S
BLAIR          FAIR      69  65  87 S9        29.93R
COLUMBUS *     PTCLDY    70  61  73 CALM      29.92R
FREMONT        CLEAR     70  66  87 E3        29.92R
TEKAMAH        CLEAR     66  65  96 SE7       29.91R
$$

NEZ050>053-065>068-078-088>093-011200-
SOUTHEAST NEBRASKA

CITY           SKY/WX    TMP DP  RH WIND       PRES   REMARKS
LINCOLN        CLEAR     71  66  84 S9        29.93R
OMAHA EPPLEY   CLEAR     70  68  93 S9        29.93R
BEATRICE       CLEAR     70  66  86 S6        29.94F
FALLS CITY     CLEAR     72  68  87 S8        29.96R
NEBRASKA CITY  CLEAR     70  68  91 S10       29.95S
PLATTSMOUTH    CLEAR     70  66  86 S8        29.94R
$$

NEZ044-045-051>053-067-011200-
OMAHA AREA

CITY           SKY/WX    TMP DP  RH WIND       PRES   REMARKS
EPPLEY FIELD   CLEAR     70  68  93 S9        29.93R
BLAIR          CLEAR     69  65  87 S9        29.93R
FREMONT        CLEAR     70  66  87 E3        29.92R
MILLARD        CLEAR     69  67  92 SE5       29.92S
OFFUTT AFB     CLEAR     67  66  99 E6        29.93R
PLATTSMOUTH    CLEAR     70  66  86 S8        29.94R
WAHOO          FAIR      65  64  96 S3        29.92S
$$



USA.gov is the U.S. government's official web portal to all federal, state and local government web resources and services.